TimeEST,TemperatureF,Dew PointF,Humidity,Sea Level PressureIn,VisibilityMPH,Wind Direction,Wind SpeedMPH,Gust SpeedMPH,PrecipitationIn,Events,Conditions,WindDirDegrees,DateUTC
12:53 AM,10.0,1.0,67,29.87,10.0,NW,13.8,-,N/A,,Clear,310,2014-02-15 05:53:00
1:53 AM,8.1,-0.0,70,29.88,10.0,NW,11.5,-,N/A,,Clear,310,2014-02-15 06:53:00
2:53 AM,7.0,-0.9,70,29.91,10.0,NW,10.4,-,N/A,,Clear,310,2014-02-15 07:53:00
3:53 AM,6.1,-2.0,69,29.93,10.0,NW,8.1,-,N/A,,Clear,310,2014-02-15 08:53:00
4:53 AM,5.0,-2.0,73,29.95,10.0,WNW,6.9,-,N/A,,Clear,290,2014-02-15 09:53:00
5:53 AM,3.0,-2.9,76,29.99,10.0,West,9.2,-,N/A,,Clear,270,2014-02-15 10:53:00
6:53 AM,1.9,-4.0,76,29.99,10.0,West,8.1,-,N/A,,Clear,270,2014-02-15 11:53:00
7:53 AM,1.9,-4.0,76,30.02,10.0,West,9.2,-,N/A,,Clear,270,2014-02-15 12:53:00
8:53 AM,5.0,-2.0,73,30.04,10.0,West,10.4,-,N/A,,Clear,280,2014-02-15 13:53:00
9:53 AM,9.0,1.0,70,30.03,10.0,WNW,9.2,-,N/A,,Clear,300,2014-02-15 14:53:00
10:53 AM,12.0,1.9,64,30.05,10.0,WNW,6.9,-,N/A,,Clear,300,2014-02-15 15:53:00
11:53 AM,14.0,3.9,64,30.06,10.0,West,4.6,-,N/A,,Clear,260,2014-02-15 16:53:00
12:53 PM,15.1,3.9,61,30.06,10.0,SW,6.9,-,N/A,,Clear,230,2014-02-15 17:53:00
1:53 PM,16.0,5.0,62,30.04,10.0,SW,10.4,-,N/A,,Clear,220,2014-02-15 18:53:00
2:53 PM,17.1,5.0,59,30.04,10.0,SW,12.7,-,N/A,,Clear,220,2014-02-15 19:53:00
3:53 PM,18.0,5.0,57,30.04,10.0,SW,12.7,-,N/A,,Clear,220,2014-02-15 20:53:00
4:53 PM,18.0,6.1,60,30.03,10.0,SW,8.1,-,N/A,,Clear,220,2014-02-15 21:53:00
5:53 PM,17.1,5.0,59,30.06,10.0,SW,8.1,-,N/A,,Clear,220,2014-02-15 22:53:00
6:53 PM,17.1,5.0,59,30.08,10.0,SSW,5.8,-,N/A,,Clear,210,2014-02-15 23:53:00
7:53 PM,16.0,3.9,59,30.08,10.0,South,5.8,-,N/A,,Mostly Cloudy,190,2014-02-16 00:53:00
8:53 PM,14.0,3.9,64,30.07,10.0,South,4.6,-,N/A,,Scattered Clouds,190,2014-02-16 01:53:00
9:53 PM,14.0,3.9,64,30.06,10.0,SSW,4.6,-,N/A,,Mostly Cloudy,200,2014-02-16 02:53:00
10:53 PM,14.0,3.9,64,30.06,10.0,SSW,4.6,-,N/A,,Scattered Clouds,200,2014-02-16 03:53:00
11:53 PM,14.0,5.0,67,30.05,10.0,SSW,5.8,-,N/A,,Overcast,200,2014-02-16 04:53:00